Temp
11 11 11 11 11 11 10 10 10 10 11 11 11 10 10 10 10 11 11 10 10 10 10 10 10 10 10 10 10 10 10 10 11 11 10 10 10 10 10 10 10 10 10 10 10 10 11 11 11 10 10 10 11 11 11 11 11 12 13 13 13 13 13 13 13 13 13 13 13
11 11 11 11 11 11 10 10 10 11 11 11 10 10 10 10 10 10 10 10 10 10 10 10 10 10 10 10 10 10 10 10 10 10 10 10 10 10 10 10 10 10 10 10 10 10 11 10 10 10 10 10 10 10 10 10 12 12 13 13 13 13 13 13 13 13 13 13 12
11 11 11 11 11 11 10 10 10 10 10 10 10 10 10 10 10 10 10 10 10 10 10 10 10 10 10 10 10 10 10 10 10 10 10 10 10 10 9 9 10 9 10 10 10 10 10 10 10 10 10 10 10 9 10 11 12 13 13 13 13 13 13 13 13 12 12 12 12
11 11 11 11 10 10 10 10 10 10 10 10 10 10 10 10 10 10 10 10 10 10 10 10 10 10 10 10 10 10 10 10 10 10 10 10 10 9 9 9 9 9 10 10 10 10 9 9 9 10 10 9 9 9 10 11 12 13 13 13 13 13 13 13 12 12 12 12 12
11 10 10 10 10 10 10 10 10 10 10 10 10 10 10 10 10 10 10 10 10 10 10 10 10 10 10 10 10 10 10 10 10 10 10 9 9 9 9 9 9 9 10 10 9 9 9 9 9 9 9 9 9 9 11 12 13 13 13 13 13 13 13 13 12 12 12 12 12
10 10 10 10 10 10 10 10 10 10 10 10 10 10 10 10 10 10 10 10 10 10 10 10 10 10 10 10 10 10 10 10 10 9 9 9 9 9 9 9 9 10 10 10 9 9 9 9 9 9 9 9 9 10 11 12 13 13 13 13 13 13 12 12 12 12 12 12 12
10 10 10 10 10 10 10 10 10 10 10 11 11 11 11 11 11 10 10 10 10 10 10 10 10 10 10 10 10 10 10 10 9 9 9 9 9 9 9 9 10 10 10 10 9 9 9 9 9 9 9 9 9 10 12 13 13 13 13 13 13 12 12 12 12 12 12 12 12
10 10 10 10 10 10 10 10 10 11 11 11 11 11 11 11 11 10 10 10 10 10 9 9 9 10 10 10 10 10 9 9 9 9 9 9 9 9 9 9 9 9 9 9 9 9 9 9 9 9 9 9 10 11 13 13 13 13 13 13 13 12 12 12 12 12 12 12 12
10 10 10 10 10 10 11 11 11 11 11 11 11 11 11 11 10 10 10 10 10 10 9 9 9 10 10 10 9 9 9 9 9 9 9 9 9 9 9 9 9 9 9 9 9 9 9 9 9 9 9 10 11 12 13 13 13 13 13 13 12 12 12 12 12 12 12 12 12
10 10 10 10 10 10 10 11 11 11 11 10 10 10 10 10 10 10 10 10 10 10 9 9 9 9 9 9 9 9 9 9 9 9 9 9 9 9 9 9 9 9 9 9 9 9 9 9 9 9 10 11 12 13 13 13 13 13 12 12 12 12 12 12 12 12 12 12 13
10 10 10 10 10 10 10 10 10 10 10 10 10 10 10 10 10 10 10 10 10 10 9 9 9 9 9 8 8 8 8 8 9 9 9 9 9 9 9 9 9 9 9 9 9 9 9 9 9 10 11 12 12 13 12 12 12 12 12 12 12 12 12 12 12 12 13 13 13
10 10 10 10 10 10 10 10 10 10 10 10 10 10 9 9 9 9 9 9 10 9 9 9 9 8 8 8 8 8 8 8 8 8 9 9 9 9 9 9 9 9 9 9 9 9 9 10 11 11 12 12 12 12 12 12 11 12 12 12 12 12 12 12 13 13 13 13 13
10 10 10 10 10 10 10 10 10 10 10 10 10 9 9 9 9 9 9 9 9 9 9 9 8 8 8 8 7 7 7 7 8 8 9 9 9 9 9 8 8 8 8 9 9 10 10 11 12 12 12 12 11 11 11 11 11 11 11 12 12 12 12 12 13 13 13 13 13
10 10 10 10 10 10 10 10 10 10 10 10 10 9 9 9 9 9 9 9 9 9 9 8 8 8 8 7 7 7 7 8 8 8 9 9 9 9 8 8 8 8 9 10 10 11 12 12 12 11 11 11 11 10 10 10 10 11 11 11 12 12 12 13 13 13 13 13 13
10 10 10 10 10 10 10 10 10 10 10 9 9 9 9 9 9 9 9 9 9 9 9 8 8 8 7 7 7 7 7 8 8 9 9 9 9 8 8 8 8 9 10 11 11 12 12 11 11 10 10 10 10 10 10 10 10 11 11 12 12 13 13 13 13 13 13 13 14
9 9 9 9 9 9 9 9 9 9 9 9 9 9 9 9 9 9 9 9 9 9 8 8 8 8 7 7 7 7 7 8 8 9 9 9 9 8 8 8 9 10 11 11 11 11 11 10 10 10 9 9 9 9 10 10 11 11 12 12 13 13 13 14 14 14 14 13 13
9 9 9 9 9 9 9 9 9 9 9 9 9 9 9 9 9 8 9 9 9 8 8 8 8 7 7 7 7 7 8 8 8 9 9 9 9 8 9 9 10 10 11 11 10 10 10 9 9 9 9 9 9 9 10 10 11 12 13 13 13 13 13 13 13 13 13 13 13
9 9 9 9 9 9 9 9 9 9 9 9 9 9 8 8 8 8 8 8 8 8 8 8 7 7 7 7 7 8 8 8 8 9 9 9 9 9 9 10 10 10 10 10 9 9 9 9 9 9 9 9 9 10 10 11 12 12 13 13 13 13 13 13 13 13 13 13 13
9 9 9 9 9 9 9 9 9 9 9 9 9 8 8 8 8 8 8 8 8 8 8 7 7 7 7 7 7 7 8 8 8 9 9 9 9 9 9 9 9 9 9 9 9 9 9 9 9 9 9 10 10 10 11 12 12 12 12 12 12 13 13 13 13 13 13 13 12
9 8 8 8 8 9 9 9 9 9 9 9 8 8 8 8 8 8 8 8 8 8 8 7 7 7 7 7 7 7 7 8 8 9 9 8 9 9 9 9 9 9 8 8 9 9 9 9 9 10 10 10 10 11 12 12 12 12 12 12 12 12 12 12 12 12 12 12 11
8 8 8 8 8 8 8 9 9 9 9 8 8 8 8 8 8 8 8 8 8 8 8 8 7 7 7 7 6 7 7 8 8 8 8 8 8 9 9 9 8 8 8 9 9 9 10 10 10 10 10 10 11 11 12 12 12 12 12 12 12 12 12 12 12 12 11 11 10
8 8 8 8 8 8 8 8 8 8 8 8 8 8 8 8 8 8 8 8 8 8 8 8 7 7 6 6 6 7 7 8 8 8 8 8 8 9 8 8 8 9 9 9 10 10 10 11 11 11 10 11 11 11 12 12 12 12 12 12 12 12 12 12 11 11 10 10 10
8 8 8 8 8 8 8 8 8 8 8 8 8 8 8 8 8 8 8 8 8 8 8 8 7 7 7 7 7 7 7 7 7 8 8 8 9 9 9 9 9 9 9 10 10 10 11 11 11 11 11 11 11 11 12 12 12 12 12 12 12 12 11 11 10 10 10 10 10
8 8 8 8 8 8 8 8 8 8 8 8 8 8 8 7 8 8 8 8 8 8 8 8 8 8 7 7 7 7 7 7 7 8 8 8 9 9 9 9 9 9 10 10 10 11 11 11 11 11 11 11 11 12 12 12 12 12 12 12 11 11 11 10 10 10 10 10 10
8 8 8 8 8 8 8 8 8 7 7 7 7 7 7 7 7 7 8 8 8 8 8 8 8 8 8 8 8 8 7 7 8 8 8 8 9 9 9 9 9 10 10 10 10 10 10 10 10 11 11 11 11 12 12 11 11 11 11 11 11 10 10 10 10 10 10 10 10
8 8 8 8 8 8 8 8 8 7 7 7 7 7 7 7 7 7 7 8 8 8 8 8 8 8 8 8 8 8 8 8 8 8 8 8 9 9 9 9 10 10 10 10 10 10 10 10 11 11 11 11 12 12 11 11 11 11 11 10 10 10 10 10 10 10 10 10 10
8 8 8 8 8 8 8 8 8 7 7 7 7 7 7 7 7 7 8 8 8 8 8 8 8 8 8 8 8 8 8 8 8 8 8 9 9 9 9 10 10 10 10 10 10 10 10 11 11 11 11 11 11 11 11 11 11 11 10 10 10 10 10 10 10 10 10 10 10
8 8 8 8 8 8 8 8 8 8 8 8 7 7 7 7 7 8 8 8 8 8 9 9 9 9 9 8 8 8 8 8 9 9 9 9 9 9 9 10 10 10 10 10 10 11 11 11 11 11 11 11 11 11 11 11 11 11 11 10 10 10 10 10 10 10 10 10 10
8 8 8 8 8 8 8 8 8 8 8 8 8 8 8 8 8 8 8 8 8 9 9 9 9 9 9 9 9 9 9 9 9 9 9 9 9 9 9 9 10 10 10 11 11 11 11 11 11 11 11 11 11 11 11 11 11 11 11 11 11 11 11 10 10 10 10 10 10
8 8 8 8 8 8 8 8 8 8 8 8 8 8 8 8 8 8 8 8 8 9 9 9 10 10 10 10 9 9 9 9 9 9 9 9 9 9 9 10 10 10 11 11 11 11 11 11 11 11 11 11 11 11 11 11 11 11 11 11 11 11 11 11 10 10 10 10 9
8 8 8 8 8 8 8 8 8 8 8 8 8 8 8 8 8 8 8 9 9 9 10 10 10 10 10 10 10 10 10 9 9 9 9 9 9 9 10 10 10 10 11 11 11 11 11 11 11 11 11 11 11 11 11 11 11 11 11 11 11 11 10 10 10 10 10 9 9
8 8 8 8 8 8 8 8 8 8 8 8 8 8 8 8 8 9 9 9 9 9 10 10 10 10 10 10 10 10 10 10 9 9 9 10 10 10 10 10 10 10 11 11 11 11 11 11 11 11 11 11 11 11 11 11 11 11 11 11 11 10 10 10 10 9 9 9 9
8 8 8 8 8 8 8 8 8 8 8 8 8 9 9 9 9 9 9 9 10 10 10 10 10 10 10 10 10 10 10 10 10 10 10 10 10 10 10 10 10 10 11 11 11 11 11 11 11 11 11 11 11 11 11 11 11 11 11 11 10 10 10 9 9 9 9 8 8
8 8 8 8 8 8 8 8 8 8 8 8 8 9 9 9 9 9 10 10 10 10 10 10 10 10 10 10 10 10 10 10 10 10 10 10 10 10 10 10 10 11 11 11 11 11 11 11 11 11 11 11 11 11 11 11 11 11 11 10 10 10 9 9 8 8 8 7 7
9 9 8 8 8 8 8 8 8 8 8 8 9 9 10 10 10 10 10 10 10 10 10 10 11 11 11 11 11 11 11 11 11 11 10 10 10 10 10 10 11 11 11 11 11 11 11 11 11 11 11 11 11 11 11 11 11 11 10 10 10 9 8 8 7 7 7 6 6
9 9 9 8 8 8 8 8 8 8 8 8 9 10 10 10 10 10 10 10 10 10 11 11 10 10 11 11 11 11 11 11 11 11 11 11 11 11 11 11 11 11 11 11 11 11 11 11 11 11 11 11 11 11 11 11 11 10 10 10 9 8 7 7 6 6 6 6 5
9 9 9 9 9 8 8 8 8 8 8 9 10 10 10 10 10 10 10 10 10 11 11 11 11 11 11 11 11 11 11 11 11 11 11 11 11 11 11 11 11 11 11 11 11 11 11 11 11 11 11 11 11 11 11 11 10 10 10 9 8 7 7 6 6 6 6 5 5
10 10 10 9 9 9 9 9 9 9 9 9 10 10 10 10 10 10 10 10 10 11 11 11 11 10 11 11 11 11 11 11 11 11 11 11 11 11 11 11 11 10 10 10 10 10 10 10 10 10 11 11 11 11 10 10 10 9 8 8 7 6 6 6 6 6 6 5 4
10 10 10 10 10 10 10 9 9 9 9 9 10 10 10 10 10 10 10 10 10 10 10 10 10 10 10 10 11 11 11 11 11 11 11 11 11 10 10 10 10 9 9 9 9 9 9 9 9 9 10 10 10 10 10 9 9 8 8 7 6 6 5 5 5 5 5 4 3
10 10 11 11 10 10 10 10 10 10 10 10 10 10 10 10 10 10 10 10 9 10 10 10 9 10 10 10 10 11 11 11 10 10 10 10 10 9 9 9 9 8 8 8 8 8 8 8 8 8 8 8 9 9 9 8 8 8 7 7 6 5 5 4 4 3 3 3 2
11 11 11 11 11 11 11 10 10 10 10 10 10 10 10 10 10 10 10 9 9 9 9 9 9 10 10 10 10 10 10 10 10 9 9 9 9 8 8 8 8 8 7 7 7 7 7 7 7 7 7 7 7 7 7 7 7 7 7 6 5 5 4 3 3 2 2 1 1
Height
1403 1404 1405 1406 1407 1408 1409 1410 1411 1413 1414 1416 1416 1417 1418 1419 1420 1421 1423 1426 1428 1431 1432 1434 1436 1437 1439 1441 1442 1444 1446 1448 1451 1453 1455 1457 1459 1461 1463 1466 1468 1470 1472 1473 1475 1477 1481 1485 1489 1492 1494 1496 1498 1500 1502 1503 1504 1505 1506 1508 1509 1511 1512 1513 1515 1516 1517 1518 1519
1401 1402 1403 1404 1405 1406 1407 1409 1411 1412 1413 1414 1415 1416 1417 1417 1418 1420 1423 1426 1429 1431 1432 1434 1436 1437 1438 1441 1443 1444 1446 1447 1450 1452 1454 1456 1458 1461 1462 1464 1466 1468 1470 1472 1474 1477 1481 1485 1489 1491 1493 1496 1498 1500 1501 1502 1502 1503 1505 1507 1509 1510 1511 1513 1514 1515 1516 1517 1518
1399 1400 1401 1402 1403 1404 1406 1408 1410 1411 1412 1414 1415 1416 1417 1418 1420 1422 1425 1427 1430 1431 1432 1433 1435 1436 1438 1440 1442 1444 1446 1447 1449 1451 1453 1456 1458 1459 1461 1462 1464 1466 1468 1470 1474 1478 1482 1486 1488 1491 1493 1495 1497 1499 1500 1501 1501 1502 1504 1506 1508 1509 1511 1512 1513 1514 1516 1516 1518
1398 1398 1399 1400 1400 1401 1404 1406 1409 1410 1412 1414 1416 1417 1419 1420 1421 1423 1426 1428 1430 1431 1431 1433 1434 1436 1438 1440 1442 1444 1445 1446 1448 1450 1452 1454 1456 1458 1459 1461 1462 1464 1466 1470 1475 1479 1482 1485 1487 1490 1491 1493 1496 1498 1499 1500 1501 1502 1504 1506 1507 1509 1510 1511 1512 1514 1515 1516 1516
1397 1397 1398 1398 1399 1400 1403 1406 1408 1410 1412 1414 1416 1417 1419 1420 1422 1424 1426 1427 1429 1430 1431 1432 1434 1436 1437 1439 1441 1442 1444 1446 1447 1449 1451 1453 1455 1456 1458 1460 1461 1463 1466 1471 1475 1478 1481 1484 1486 1488 1491 1493 1495 1497 1498 1499 1500 1502 1504 1506 1507 1508 1509 1511 1512 1513 1514 1515 1516
1396 1397 1398 1399 1400 1401 1404 1406 1408 1410 1412 1414 1415 1416 1418 1419 1421 1423 1425 1426 1428 1429 1430 1432 1433 1435 1437 1438 1440 1441 1443 1445 1447 1449 1451 1453 1454 1456 1458 1460 1462 1465 1468 1471 1475 1478 1481 1483 1486 1488 1491 1492 1495 1497 1498 1498 1500 1501 1503 1505 1506 1507 1509 1510 1511 1512 1513 1513 1514
1395 1397 1398 1400 1401 1403 1405 1407 1409 1411 1412 1413 1414 1416 1417 1418 1420 1422 1424 1425 1427 1428 1430 1431 1433 1434 1436 1438 1439 1441 1442 1444 1446 1449 1451 1453 1455 1457 1459 1462 1464 1467 1470 1472 1475 1477 1480 1483 1486 1489 1491 1492 1494 1497 1498 1498 1499 1501 1503 1504 1505 1506 1508 1509 1510 1511 1511 1512 1513
1396 1398 1399 1401 1402 1404 1405 1407 1408 1410 1411 1413 1414 1415 1416 1418 1419 1421 1422 1424 1426 1428 1429 1430 1432 1434 1436 1437 1438 1440 1442 1444 1446 1449 1451 1453 1456 1458 1461 1464 1466 1468 1471 1473 1476 1478 1481 1484 1486 1488 1490 1492 1494 1496 1497 1497 1499 1501 1502 1503 1505 1506 1507 1508 1509 1509 1510 1511 1512
1397 1398 1400 1401 1402 1404 1405 1406 1408 1409 1411 1412 1413 1415 1416 1417 1418 1420 1421 1423 1426 1427 1429 1430 1431 1433 1435 1436 1438 1440 1441 1444 1446 1449 1452 1454 1456 1459 1462 1465 1467 1469 1472 1474 1477 1479 1481 1483 1486 1488 1490 1492 1494 1495 1495 1496 1499 1500 1501 1503 1504 1505 1506 1506 1507 1508 1509 1510 1511
1397 1399 1400 1401 1403 1404 1405 1406 1407 1409 1411 1412 1413 1414 1416 1417 1418 1419 1421 1423 1425 1427 1428 1430 1431 1432 1434 1436 1437 1439 1441 1443 1446 1449 1452 1455 1457 1460 1463 1465 1467 1470 1472 1474 1476 1479 1481 1483 1486 1488 1491 1492 1493 1494 1495 1496 1498 1500 1501 1502 1503 1504 1505 1506 1507 1508 1509 1510 1511
1398 1399 1400 1401 1403 1404 1405 1406 1408 1409 1411 1412 1413 1414 1416 1417 1418 1420 1421 1423 1425 1426 1428 1429 1431 1432 1434 1435 1437 1439 1441 1443 1446 1449 1451 1454 1457 1460 1462 1465 1467 1470 1472 1474 1476 1479 1481 1483 1486 1488 1490 1491 1492 1493 1494 1496 1498 1500 1501 1501 1502 1503 1504 1506 1507 1508 1509 1510 1510
1398 1399 1401 1402 1403 1404 1405 1406 1408 1409 1411 1412 1413 1414 1416 1417 1418 1420 1421 1423 1424 1426 1428 1429 1431 1432 1433 1435 1436 1438 1440 1442 1445 1448 1451 1454 1457 1460 1462 1465 1467 1470 1472 1474 1476 1479 1481 1484 1486 1488 1489 1490 1491 1492 1494 1496 1498 1500 1501 1501 1502 1503 1505 1506 1507 1507 1508 1508 1509
1399 1400 1401 1402 1403 1404 1406 1407 1408 1410 1411 1412 1413 1415 1416 1417 1418 1420 1421 1423 1424 1426 1428 1430 1431 1432 1433 1434 1436 1437 1439 1442 1445 1448 1451 1454 1457 1460 1462 1465 1468 1470 1473 1475 1477 1480 1482 1484 1486 1487 1488 1489 1490 1492 1494 1496 1498 1499 1500 1501 1502 1503 1504 1505 1506 1506 1506 1506 1507
1399 1400 1401 1402 1403 1404 1406 1407 1408 1410 1411 1412 1413 1415 1416 1417 1419 1420 1421 1423 1425 1426 1428 1430 1431 1433 1433 1434 1435 1436 1439 1442 1446 1449 1452 1455 1458 1460 1462 1466 1468 1471 1473 1476 1478 1480 1482 1484 1485 1486 1487 1488 1489 1491 1494 1496 1498 1499 1500 1501 1502 1502 1503 1503 1504 1504 1504 1505 1505
1399 1400 1401 1402 1403 1404 1406 1407 1409 1410 1411 1412 1413 1415 1416 1417 1419 1421 1422 1423 1425 1426 1428 1430 1431 1432 1433 1434 1436 1437 1440 1443 1446 1450 1453 1456 1459 1461 1463 1466 1469 1471 1474 1476 1478 1480 1482 1483 1484 1485 1486 1487 1489 1491 1494 1496 1497 1498 1499 1500 1500 1501 1501 1501 1501 1502 1502 1503 1503
1399 1400 1401 1402 1403 1405 1406 1407 1409 1410 1411 1412 1414 1415 1416 1418 1419 1421 1422 1424 1425 1426 1428 1429 1431 1432 1434 1436 1437 1439 1442 1444 1447 1450 1453 1456 1459 1461 1464 1467 1469 1472 1474 1476 1478 1480 1481 1482 1483 1484 1485 1487 1490 1492 1494 1496 1496 1497 1497 1498 1498 1499 1499 1499 1500 1500 1501 1501 1502
1399 1400 1401 1402 1403 1405 1406 1407 1409 1410 1411 1412 1414 1415 1416 1418 1419 1421 1422 1423 1425 1426 1428 1430 1431 1433 1435 1437 1439 1441 1443 1445 1447 1450 1452 1456 1459 1462 1464 1467 1469 1472 1474 1476 1477 1479 1481 1481 1482 1484 1486 1488 1491 1492 1494 1494 1495 1495 1495 1496 1496 1496 1497 1497 1498 1499 1499 1500 1501
1399 1400 1401 1402 1403 1405 1406 1407 1408 1410 1411 1413 1414 1416 1417 1418 1419 1421 1422 1423 1425 1426 1428 1430 1432 1434 1436 1438 1441 1442 1444 1445 1447 1449 1452 1456 1459 1462 1464 1467 1470 1472 1474 1476 1477 1479 1480 1481 1483 1485 1487 1489 1491 1492 1492 1492 1492 1492 1493 1493 1494 1495 1496 1496 1497 1498 1498 1499 1500
1399 1400 1401 1402 1404 1405 1406 1407 1408 1410 1411 1413 1414 1416 1417 1419 1420 1421 1422 1424 1426 1427 1429 1431 1433 1435 1437 1439 1441 1442 1444 1445 1446 1450 1453 1457 1460 1462 1465 1468 1470 1472 1474 1476 1477 1479 1480 1482 1484 1486 1488 1489 1490 1490 1490 1490 1490 1490 1491 1492 1493 1494 1495 1496 1496 1497 1498 1498 1498
1399 1401 1401 1402 1404 1405 1406 1407 1408 1410 1411 1413 1415 1416 1418 1419 1421 1422 1423 1425 1426 1428 1430 1432 1434 1436 1438 1439 1441 1442 1443 1445 1447 1451 1455 1458 1461 1463 1466 1468 1470 1472 1474 1476 1477 1479 1481 1482 1484 1486 1487 1488 1488 1488 1487 1487 1488 1489 1490 1491 1492 1493 1494 1495 1496 1496 1497 1497 1497
1400 1401 1402 1403 1404 1405 1406 1407 1409 1410 1412 1413 1415 1416 1418 1420 1421 1423 1424 1426 1428 1430 1431 1433 1435 1436 1437 1439 1441 1442 1443 1445 1448 1452 1456 1459 1462 1464 1466 1468 1470 1472 1474 1476 1477 1479 1481 1482 1484 1485 1485 1486 1486 1485 1486 1486 1488 1489 1490 1490 1491 1492 1493 1494 1495 1496 1496 1496 1496
1400 1401 1402 1403 1404 1406 1406 1408 1409 1411 1412 1414 1415 1417 1418 1420 1422 1423 1425 1427 1429 1431 1432 1434 1435 1436 1437 1439 1441 1442 1444 1446 1450 1454 1457 1460 1462 1465 1466 1469 1471 1472 1474 1475 1476 1478 1480 1481 1482 1482 1483 1483 1484 1484 1485 1486 1487 1488 1488 1489 1490 1491 1492 1493 1494 1495 1495 1494 1493
1400 1401 1403 1404 1405 1406 1407 1408 1410 1411 1413 1414 1416 1417 1419 1421 1422 1424 1426 1428 1429 1431 1433 1434 1436 1436 1438 1440 1442 1444 1446 1449 1452 1456 1458 1461 1463 1465 1467 1469 1470 1471 1472 1474 1475 1476 1478 1479 1480 1481 1481 1482 1482 1483 1484 1485 1486 1486 1487 1488 1489 1491 1492 1492 1492 1492 1491 1490 1489
1401 1402 1403 1404 1406 1406 1408 1409 1410 1412 1413 1415 1416 1417 1419 1421 1423 1425 1426 1428 1429 1431 1433 1434 1436 1438 1440 1442 1444 1446 1448 1450 1453 1456 1459 1461 1463 1465 1466 1467 1468 1470 1471 1472 1474 1475 1476 1477 1478 1479 1480 1481 1481 1482 1483 1484 1485 1485 1486 1487 1488 1489 1490 1489 1488 1487 1487 1487 1487
1401 1402 1403 1405 1406 1407 1408 1409 1411 1412 1414 1415 1416 1418 1419 1421 1423 1425 1426 1428 1430 1431 1433 1435 1437 1439 1442 1444 1446 1447 1450 1451 1454 1456 1458 1460 1462 1463 1465 1466 1467 1469 1470 1472 1473 1475 1476 1477 1478 1478 1479 1479 1480 1481 1481 1483 1484 1484 1485 1486 1486 1486 1486 1485 1485 1485 1485 1485 1484
1401 1402 1403 1405 1406 1407 1408 1410 1411 1413 1414 1416 1417 1418 1420 1421 1423 1425 1426 1428 1430 1432 1434 1436 1439 1441 1443 1445 1447 1449 1451 1452 1454 1456 1457 1459 1461 1462 1464 1465 1467 1468 1470 1472 1473 1474 1475 1476 1476 1477 1477 1478 1479 1480 1481 1482 1482 1483 1483 1483 1483 1483 1482 1482 1482 1482 1482 1482 1482
1401 1402 1403 1405 1406 1407 1409 1410 1411 1413 1415 1416 1418 1419 1420 1421 1423 1425 1427 1429 1431 1434 1436 1438 1440 1442 1444 1446 1447 1449 1451 1452 1454 1455 1457 1458 1460 1462 1463 1465 1467 1469 1470 1471 1472 1473 1473 1474 1474 1475 1476 1478 1479 1479 1479 1479 1479 1479 1480 1480 1480 1480 1480 1480 1480 1480 1480 1480 1480
1401 1402 1403 1405 1406 1407 1409 1410 1412 1414 1415 1416 1418 1419 1421 1422 1424 1426 1429 1431 1433 1435 1436 1438 1440 1442 1444 1446 1447 1448 1450 1452 1454 1455 1457 1459 1460 1462 1463 1465 1467 1469 1469 1469 1469 1470 1471 1471 1473 1474 1475 1476 1476 1476 1476 1476 1476 1477 1477 1477 1477 1477 1477 1477 1478 1478 1478 1478 1478
1400 1402 1403 1405 1406 1407 1409 1410 1412 1414 1416 1417 1418 1420 1421 1423 1425 1428 1430 1431 1433 1435 1436 1438 1440 1441 1443 1445 1446 1448 1450 1452 1454 1456 1457 1459 1460 1462 1464 1466 1466 1466 1466 1466 1467 1468 1469 1470 1471 1473 1473 1474 1474 1474 1474 1474 1475 1475 1475 1475 1475 1475 1475 1476 1476 1476 1476 1476 1475
1400 1401 1403 1404 1406 1407 1408 1410 1412 1414 1416 1417 1419 1421 1422 1424 1426 1428 1430 1432 1433 1435 1436 1438 1439 1441 1442 1444 1446 1449 1451 1453 1455 1456 1456 1458 1461 1462 1463 1463 1462 1462 1463 1463 1464 1466 1467 1468 1470 1470 1471 1471 1471 1472 1472 1472 1472 1473 1473 1473 1473 1473 1473 1473 1473 1473 1473 1473 1473
1400 1401 1403 1404 1405 1407 1408 1410 1412 1414 1416 1417 1419 1421 1422 1425 1427 1429 1430 1432 1433 1435 1437 1438 1440 1441 1443 1445 1447 1450 1452 1454 1455 1456 1457 1459 1460 1460 1460 1460 1459 1460 1460 1461 1462 1464 1465 1466 1467 1468 1468 1469 1470 1470 1470 1470 1470 1471 1471 1471 1471 1471 1471 1471 1471 1471 1471 1471 1471
1401 1401 1403 1404 1405 1406 1408 1410 1412 1414 1416 1418 1419 1421 1423 1425 1427 1430 1431 1433 1435 1437 1438 1440 1441 1443 1445 1446 1449 1451 1452 1454 1455 1456 1456 1457 1457 1457 1457 1457 1457 1457 1458 1459 1461 1462 1463 1464 1465 1466 1466 1467 1468 1468 1468 1468 1468 1469 1469 1469 1469 1469 1469 1469 1469 1469 1469 1469 1469
1401 1401 1403 1404 1405 1406 1408 1410 1412 1414 1416 1418 1420 1421 1423 1426 1428 1431 1433 1435 1436 1438 1439 1440 1441 1442 1444 1446 1447 1448 1449 1451 1451 1453 1454 1454 1455 1455 1454 1454 1455 1456 1456 1457 1459 1460 1461 1462 1463 1463 1464 1465 1466 1466 1466 1466 1466 1466 1467 1467 1467 1467 1467 1467 1467 1467 1467 1467 1467
1401 1401 1403 1404 1405 1406 1408 1410 1412 1414 1416 1418 1420 1422 1424 1426 1429 1431 1433 1434 1435 1436 1437 1438 1440 1441 1442 1444 1445 1446 1447 1448 1449 1450 1451 1452 1452 1452 1452 1453 1453 1454 1455 1456 1457 1458 1459 1460 1461 1461 1462 1463 1464 1464 1464 1464 1464 1465 1465 1465 1465 1466 1466 1466 1466 1466 1466 1466 1466
1400 1401 1403 1404 1405 1407 1408 1410 1412 1414 1416 1418 1421 1422 1425 1427 1429 1431 1431 1432 1434 1435 1436 1437 1439 1440 1441 1442 1443 1444 1445 1446 1447 1448 1449 1449 1450 1450 1451 1451 1452 1452 1453 1454 1455 1456 1457 1458 1459 1460 1461 1461 1462 1462 1462 1462 1463 1463 1463 1463 1464 1464 1464 1465 1465 1465 1465 1465 1466
1401 1401 1403 1404 1406 1407 1409 1411 1412 1414 1416 1419 1421 1423 1425 1427 1428 1429 1430 1431 1432 1434 1435 1436 1437 1438 1439 1440 1441 1442 1444 1445 1446 1446 1447 1448 1448 1449 1449 1450 1450 1451 1452 1452 1453 1454 1455 1456 1457 1458 1459 1460 1460 1460 1461 1461 1461 1461 1461 1462 1462 1462 1463 1463 1464 1464 1465 1465 1465
1401 1402 1403 1404 1406 1407 1409 1411 1413 1415 1417 1419 1421 1423 1425 1426 1427 1428 1429 1430 1431 1432 1433 1434 1435 1436 1437 1438 1440 1441 1442 1443 1444 1445 1445 1446 1446 1447 1447 1448 1448 1449 1450 1451 1452 1453 1454 1455 1455 1456 1457 1458 1458 1459 1459 1459 1459 1459 1460 1460 1461 1461 1461 1462 1463 1463 1464 1465 1465
1401 1402 1403 1405 1406 1408 1410 1411 1413 1415 1417 1420 1422 1423 1424 1424 1426 1426 1428 1429 1430 1431 1432 1433 1434 1435 1436 1437 1438 1439 1440 1441 1441 1442 1443 1444 1444 1444 1445 1446 1447 1448 1448 1450 1451 1451 1452 1453 1454 1455 1455 1456 1456 1457 1457 1457 1457 1458 1458 1459 1460 1460 1461 1461 1461 1462 1463 1464 1464
1401 1402 1404 1405 1407 1408 1410 1412 1414 1416 1418 1420 1421 1422 1422 1423 1424 1426 1426 1428 1429 1430 1431 1432 1433 1434 1434 1435 1436 1437 1438 1439 1439 1440 1441 1441 1442 1442 1443 1444 1445 1446 1447 1448 1449 1450 1451 1452 1453 1453 1454 1454 1455 1455 1456 1456 1456 1457 1458 1459 1460 1460 1461 1461 1461 1461 1462 1462 1463
1401 1402 1404 1406 1407 1409 1411 1413 1415 1417 1418 1419 1420 1420 1421 1422 1423 1424 1425 1426 1428 1429 1430 1430 1431 1431 1432 1433 1434 1435 1436 1437 1438 1438 1439 1440 1441 1441 1442 1443 1444 1445 1446 1447 1449 1450 1450 1451 1452 1452 1453 1454 1454 1455 1455 1456 1456 1457 1458 1459 1460 1460 1460 1460 1460 1461 1461 1461 1462
1401 1402 1404 1406 1408 1410 1411 1413 1415 1416 1417 1418 1418 1419 1420 1421 1422 1423 1424 1426 1427 1427 1428 1428 1429 1429 1431 1431 1433 1433 1434 1435 1436 1437 1438 1439 1440 1440 1441 1442 1443 1444 1446 1447 1448 1449 1449 1450 1451 1451 1452 1453 1453 1454 1454 1455 1456 1456 1457 1458 1458 1458 1458 1459 1459 1460 1460 1461 1461
Wind_Speed
37 38 38 37 37 37 38 37 37 38 40 42 43 43 45 47 50 50 48 45 43 42 42 43 42 42 42 42 42 44 47 50 52 51 50 48 47 46 46 46 47 47 48 47 45 43 43 44 45 45 44 44 45 46 46 44 41 37 33 29 26 25 24 24 23 23 23 23 22
37 38 39 39 39 40 39 37 36 38 40 41 41 41 43 45 45 43 40 39 38 39 41 41 41 40 40 40 40 42 44 48 49 49 48 47 45 44 44 44 46 48 49 47 43 42 43 44 44 44 44 44 46 45 44 42 39 34 29 26 24 23 23 23 23 23 23 22 22
37 38 39 41 42 42 41 38 37 38 38 37 36 35 35 35 33 31 30 31 34 37 39 40 40 40 40 40 41 42 43 46 47 46 45 45 44 44 43 44 45 47 48 46 45 44 44 44 43 44 45 46 46 44 42 40 36 30 25 23 22 22 23 23 23 23 23 23 23
36 37 39 41 43 43 41 38 37 36 34 32 29 27 26 25 25 24 25 26 31 35 38 39 40 40 40 40 41 42 43 44 44 43 43 43 44 44 44 45 46 48 49 49 48 46 44 44 45 47 48 48 45 42 40 38 31 25 21 20 21 22 22 22 22 23 23 23 23
35 36 37 39 41 40 38 36 34 32 29 27 24 22 22 22 24 25 26 28 32 35 37 38 39 39 40 40 42 43 43 43 42 41 41 43 44 45 46 47 48 49 50 51 50 48 47 47 48 49 48 46 42 40 38 33 26 21 19 20 21 21 21 21 22 22 22 22 21
35 35 35 36 35 35 33 32 30 27 25 24 23 23 23 24 26 28 30 32 34 35 36 37 38 39 39 40 41 42 43 42 40 40 41 44 45 46 47 48 47 48 50 52 51 50 50 49 49 47 45 42 39 38 34 27 22 20 19 20 20 21 21 21 21 21 21 20 19
34 34 33 31 30 30 29 27 25 24 24 24 25 25 25 26 28 30 32 34 35 36 36 37 38 39 39 40 41 42 42 40 39 40 42 44 44 45 45 46 46 47 49 51 51 50 49 48 46 43 40 38 37 34 28 22 21 20 20 20 20 20 20 20 20 19 19 18 17
33 32 31 29 28 27 25 24 23 24 25 26 26 27 27 28 30 32 34 36 36 36 37 38 39 40 40 41 42 42 42 40 40 41 42 42 42 41 42 43 44 46 47 47 47 46 44 42 40 38 37 36 34 29 23 21 21 20 19 19 19 19 19 19 18 18 17 16 16
32 31 30 29 28 26 25 24 24 25 27 27 27 28 29 30 32 34 36 37 37 36 37 38 40 41 42 43 43 43 42 41 41 41 41 40 39 38 38 39 41 42 42 42 41 40 39 38 37 37 36 35 29 25 22 21 21 20 19 19 19 19 19 18 17 16 15 15 14
30 30 30 30 29 28 27 26 26 26 27 27 27 28 30 32 34 36 37 38 37 37 38 40 42 44 45 45 44 42 41 41 42 42 40 39 38 37 36 36 36 37 37 37 37 36 36 36 38 38 35 30 25 22 21 21 20 19 19 19 19 19 18 16 15 14 14 13 13
29 29 30 31 31 30 29 28 27 26 27 27 28 29 30 33 35 37 38 39 39 39 39 41 44 45 45 44 42 40 39 40 41 41 39 38 37 36 34 33 32 33 34 35 35 35 36 38 39 37 31 26 23 22 21 20 19 18 18 18 18 17 16 14 13 14 15 15 16
27 28 29 30 31 31 31 30 29 28 27 28 28 29 31 33 35 38 39 40 40 40 41 43 45 45 44 42 40 38 37 38 39 39 38 36 36 35 33 31 31 32 33 34 36 37 39 39 36 31 26 23 22 20 19 18 17 17 16 16 15 15 15 15 15 17 18 19 20
26 27 29 30 31 32 32 31 30 28 28 28 29 30 31 33 35 38 40 41 41 42 42 43 44 44 42 40 39 38 38 38 38 37 35 34 34 34 33 31 32 33 34 36 37 38 38 34 29 25 22 21 20 18 17 16 17 17 16 15 15 16 17 18 19 20 21 21 22
27 28 29 30 31 32 32 31 29 28 29 30 30 31 32 33 35 37 39 41 41 42 43 43 43 42 41 40 40 39 39 39 38 36 33 31 33 34 34 33 34 35 35 35 36 35 32 28 24 22 21 19 17 16 16 17 17 17 17 17 17 18 20 21 22 22 22 23 24
28 29 29 30 30 31 30 29 28 28 30 31 31 32 32 33 35 37 39 40 41 42 43 42 42 41 41 40 39 39 39 39 38 35 31 29 30 33 34 34 35 35 34 33 32 30 27 24 22 20 19 18 18 17 17 18 18 18 18 19 20 21 22 23 23 24 24 25 26
29 29 30 30 29 29 28 28 28 29 31 32 32 32 33 33 35 37 39 40 41 42 42 42 42 41 40 39 38 38 39 38 37 34 30 27 29 31 33 34 35 34 32 31 29 26 23 21 20 18 18 20 20 20 19 20 20 19 20 21 22 23 24 24 24 25 26 27 28
29 29 29 29 29 28 28 29 30 31 32 32 33 32 33 34 35 37 39 40 41 41 41 41 41 40 38 37 37 38 38 37 36 33 29 26 27 30 33 34 34 32 30 28 26 23 21 20 18 18 20 22 23 22 21 21 21 21 23 24 25 25 25 25 25 26 26 27 27
29 29 29 29 28 28 29 30 31 32 32 32 32 32 32 33 35 37 39 40 40 40 40 40 39 38 37 36 36 36 36 35 35 34 31 27 28 30 33 33 31 29 27 26 24 22 20 19 19 20 22 24 24 24 23 23 24 25 27 27 26 26 25 25 25 25 25 25 26
28 29 29 29 29 30 30 31 32 33 32 32 31 30 31 33 35 36 37 38 38 38 38 38 37 36 35 34 33 32 33 34 37 38 35 29 29 31 32 30 28 27 26 24 23 22 21 21 21 22 24 26 26 25 25 27 28 29 28 27 26 25 24 23 23 23 23 23 23
28 29 30 30 30 30 31 31 32 32 32 30 29 28 30 33 35 36 36 36 35 36 36 37 36 34 32 30 29 29 31 35 39 39 36 30 29 30 29 28 26 25 24 23 23 23 23 23 24 25 26 27 28 28 29 30 30 29 27 25 24 23 23 22 22 22 21 21 22
28 29 30 30 31 31 31 31 32 31 30 28 26 26 28 32 35 36 35 35 34 35 35 36 34 32 29 26 25 27 31 35 39 37 32 30 29 28 28 26 25 25 24 24 24 25 26 26 27 28 29 29 30 31 31 31 29 26 24 23 22 22 21 21 21 20 21 22 25
28 29 29 30 31 31 31 31 30 29 27 26 25 25 27 31 34 36 35 34 34 34 34 34 33 30 28 25 24 27 31 35 35 31 28 28 28 27 26 26 25 25 26 27 27 28 29 30 31 31 31 31 31 31 30 29 26 25 23 22 21 21 20 20 20 21 24 27 29
27 28 29 30 30 30 30 30 29 27 26 25 25 26 27 30 33 35 36 35 34 34 33 32 31 29 28 27 26 28 31 32 29 27 26 27 27 27 27 27 27 28 29 30 31 32 33 33 33 32 31 31 31 30 28 27 25 24 23 22 21 20 20 21 23 26 28 30 32
27 27 27 28 29 29 29 29 28 27 26 27 27 27 28 28 31 34 36 35 33 32 31 30 28 27 27 27 28 28 28 27 25 25 25 26 27 28 29 29 30 31 31 32 33 34 34 33 32 31 30 29 28 27 26 25 25 24 23 23 22 23 24 26 28 30 31 32 32
26 26 26 26 27 28 29 29 28 28 29 29 29 28 27 27 28 32 34 34 32 31 30 27 25 24 25 26 27 27 26 25 25 26 27 27 29 30 31 32 32 32 32 32 32 32 31 30 29 28 28 27 26 26 26 25 25 25 25 25 25 27 28 30 31 32 32 33 33
25 25 25 26 26 28 29 29 30 30 30 30 30 29 28 27 27 29 32 32 31 30 28 26 24 23 24 25 26 27 27 27 28 29 30 31 31 32 32 32 32 31 30 30 30 29 29 28 28 28 27 27 27 27 27 27 27 28 28 28 29 30 31 32 33 33 33 34 34
24 24 25 25 26 27 29 30 31 32 32 31 31 30 29 28 27 29 31 31 31 29 27 25 24 25 25 26 27 28 29 29 30 31 31 31 31 31 32 31 30 29 29 29 29 29 29 30 30 30 29 29 29 29 30 30 30 30 30 31 31 32 33 33 34 34 35 35 35
24 24 25 25 26 27 28 30 32 33 33 32 32 31 30 30 29 30 31 31 30 28 26 25 25 27 28 29 29 30 30 31 31 31 31 30 30 30 29 29 28 29 30 31 32 32 32 32 32 32 31 31 32 32 32 32 32 32 32 33 33 34 35 35 35 36 36 36 36
25 25 25 26 27 28 29 31 33 34 34 33 33 33 32 31 30 30 31 30 29 28 26 26 27 28 30 31 32 32 31 31 31 30 30 30 29 28 28 28 29 31 33 34 34 34 34 33 33 32 32 32 33 33 33 33 33 33 33 34 35 35 36 36 37 37 37 37 37
25 26 26 27 28 29 30 31 34 35 35 34 34 33 33 31 30 30 30 29 28 26 25 26 27 29 31 33 34 34 33 31 31 30 30 29 28 28 30 31 33 34 35 35 35 35 34 33 32 32 31 32 32 33 33 34 35 35 35 35 36 36 37 37 38 38 38 38 38
25 26 27 28 29 29 30 31 34 36 37 35 35 33 32 29 28 28 28 28 27 26 25 25 27 28 30 31 33 33 32 31 31 30 30 30 31 32 33 34 36 36 37 36 36 35 34 33 32 31 31 31 32 34 35 36 36 36 37 37 37 37 38 38 39 39 39 39 38
23 25 27 28 29 29 30 31 35 37 38 36 35 33 31 28 27 27 27 26 26 26 26 26 26 27 28 30 31 32 32 32 32 33 32 33 34 34 35 36 37 38 37 37 36 35 34 33 33 32 32 32 33 35 36 37 37 38 37 38 37 38 38 38 38 38 38 38 38
19 22 24 26 27 28 29 32 36 38 39 37 34 32 30 29 29 28 27 26 25 26 27 27 27 28 29 30 32 33 34 35 35 35 35 35 35 35 35 36 37 38 37 37 36 36 35 35 34 34 34 34 35 36 37 38 38 38 37 37 37 37 37 36 36 36 36 36 36
17 19 21 23 25 26 29 32 36 38 39 37 34 32 31 31 31 30 28 26 26 26 27 28 29 29 30 31 33 34 35 36 36 36 36 35 35 35 36 36 37 37 37 37 37 37 37 36 36 36 36 36 36 37 37 38 38 37 37 36 36 35 35 34 34 34 33 33 32
18 19 21 23 24 26 29 31 34 36 37 37 35 33 33 33 31 30 28 26 26 26 27 29 29 30 31 32 33 34 35 35 36 36 36 36 36 36 36 37 37 38 38 38 38 38 38 38 38 38 37 37 37 37 37 37 37 36 36 35 34 33 33 32 31 30 29 28 27
19 20 22 24 26 27 29 31 33 35 36 37 36 35 34 32 31 29 28 27 26 26 28 29 29 30 31 32 33 33 33 34 34 34 35 35 36 36 36 37 37 38 38 38 38 38 38 38 38 38 37 36 36 36 36 36 35 35 34 34 33 32 30 29 27 26 24 23 22
21 22 24 26 28 29 30 31 32 34 35 37 37 36 33 31 30 29 29 28 27 28 29 30 31 31 32 32 33 33 33 33 33 33 34 35 35 36 36 37 37 37 37 36 36 36 36 36 36 35 35 35 35 35 35 35 34 34 33 32 31 30 28 26 24 23 22 20 19
24 24 24 26 28 29 31 32 32 34 36 37 38 36 34 32 31 30 30 29 29 29 30 30 31 31 32 33 34 34 34 34 33 33 34 35 36 36 36 36 36 35 34 33 32 32 31 31 31 31 31 31 32 33 33 33 33 32 30 29 28 26 24 23 22 21 20 19 17
26 25 25 26 27 29 30 31 32 34 36 37 38 37 35 33 32 32 31 30 30 30 30 30 30 31 32 34 35 36 36 36 35 35 34 35 36 36 35 34 34 32 30 28 26 26 25 25 25 26 26 27 28 30 31 31 29 27 25 24 23 22 21 20 19 19 17 15 13
27 27 27 26 27 28 29 30 32 33 35 37 38 38 36 35 34 34 33 31 30 30 30 31 31 33 34 35 36 36 36 36 36 36 35 34 34 34 33 32 31 29 26 24 22 22 22 22 22 23 24 24 25 26 27 26 25 23 21 21 20 20 19 18 17 15 13 12 10
28 28 28 28 28 28 29 31 32 34 36 38 38 38 37 36 36 36 35 32 31 30 31 32 33 34 35 36 36 36 36 36 36 35 34 33 32 31 30 29 28 27 25 23 22 21 21 22 22 22 22 23 23 23 23 22 21 21 21 21 20 19 17 16 14 12 11 10 9
Wind_Direction
231 231 230 229 225 219 213 209 205 203 204 206 207 206 204 203 201 201 201 199 199 201 203 202 198 196 195 196 194 190 189 192 198 202 204 203 201 198 197 197 199 197 194 189 187 186 186 187 189 191 194 196 197 196 196 197 197 199 202 207 211 216 219 222 224 226 228 230 232
228 228 229 229 226 220 214 209 205 204 204 205 203 199 196 194 195 195 196 196 199 203 205 203 199 198 199 199 196 192 189 191 195 199 200 200 199 197 196 196 196 195 192 188 187 187 186 185 188 192 195 196 195 194 194 195 197 199 203 208 213 217 221 224 226 229 231 233 235
225 223 223 223 221 217 212 206 203 202 201 200 196 192 189 189 189 190 193 198 204 207 207 204 202 202 202 202 199 195 192 192 195 197 198 198 198 196 194 191 189 187 185 184 186 186 185 185 190 194 195 194 193 193 194 195 196 199 205 211 216 219 222 225 227 230 232 234 236
222 217 213 210 210 209 206 201 198 196 194 191 188 186 186 186 186 190 196 205 209 210 208 206 204 204 204 202 200 197 196 195 196 197 197 197 195 192 188 184 181 177 177 179 181 182 183 187 192 194 194 193 193 193 195 196 196 200 207 214 219 222 224 226 228 229 232 233 235
218 209 200 197 199 199 197 193 189 187 186 186 188 190 192 191 192 195 202 209 211 210 209 208 205 204 203 202 200 198 198 197 197 197 196 192 189 185 181 178 175 173 173 176 178 181 184 189 191 193 193 193 192 193 195 195 197 201 209 217 221 223 225 226 228 229 230 232 233
209 199 192 189 190 189 185 183 182 183 186 191 196 199 200 200 200 203 207 211 212 210 209 207 205 203 201 200 199 198 198 197 196 195 191 186 182 179 176 174 173 173 175 177 179 182 186 188 190 191 191 191 192 194 196 195 197 202 210 219 222 223 225 226 226 226 227 228 229
198 191 187 185 182 178 177 178 182 187 193 199 203 205 205 206 207 209 212 213 211 208 206 205 204 203 201 200 198 197 196 195 194 191 186 180 177 176 174 173 175 178 180 181 182 183 185 187 188 189 190 191 193 195 196 196 198 204 213 220 222 222 222 223 223 223 224 224 227
191 188 186 182 177 175 177 181 188 194 198 202 205 207 209 210 211 213 214 212 209 205 203 202 203 204 202 200 197 195 193 191 188 184 180 176 174 173 174 176 178 181 182 182 182 183 184 185 187 189 191 193 196 197 196 196 200 208 217 222 221 220 219 220 220 221 221 223 226
188 188 186 183 181 182 185 190 194 197 200 202 205 208 210 212 212 212 212 211 208 205 203 201 201 201 200 196 193 189 187 185 181 178 175 174 172 173 175 178 179 180 181 181 181 182 183 185 188 192 195 197 198 197 196 197 202 213 221 222 220 218 217 218 219 221 223 226 229
189 189 188 187 188 190 194 196 198 200 201 202 205 208 210 212 212 211 211 211 209 206 202 199 197 194 191 188 184 181 179 178 176 174 173 172 172 174 176 178 178 179 179 181 182 183 186 189 193 196 199 199 198 196 196 199 207 218 225 222 220 218 218 219 222 224 226 229 232
192 192 192 191 193 196 199 201 202 202 202 203 205 208 210 210 210 209 210 210 208 205 200 195 190 185 181 178 175 173 173 174 173 172 171 170 171 173 174 176 178 179 181 182 184 186 189 193 197 200 202 200 196 195 197 202 211 221 225 223 221 219 220 221 223 224 225 228 230
196 196 195 195 197 200 202 203 203 203 203 204 206 208 208 208 208 208 207 207 205 202 197 190 183 177 172 170 168 169 171 173 173 171 168 169 169 169 170 174 178 181 184 185 187 189 193 197 200 202 200 196 193 193 197 205 213 218 219 216 214 213 214 215 219 221 224 226 229
199 198 198 199 201 202 203 203 204 204 205 206 207 207 207 206 207 206 205 203 201 197 191 184 178 173 170 168 167 169 172 174 172 169 166 166 166 166 168 173 180 184 187 189 190 192 195 198 200 199 195 190 189 191 197 205 211 213 211 209 208 209 212 215 218 222 224 227 230
199 199 199 200 202 203 203 203 204 205 206 206 207 207 206 205 205 204 202 199 196 191 186 180 177 174 172 170 169 170 172 172 170 166 163 163 163 165 169 177 184 187 189 190 191 193 195 197 196 192 188 185 185 189 197 205 209 209 208 207 208 211 214 217 220 223 225 228 231
199 199 199 201 202 203 203 203 204 206 206 205 205 205 204 203 202 202 200 197 193 188 184 181 179 177 175 172 171 170 169 168 167 165 162 159 162 166 172 181 186 188 188 189 192 194 195 194 190 185 182 182 185 191 199 205 207 206 206 208 211 215 217 219 221 224 226 229 233
197 197 198 199 200 201 202 203 204 204 204 202 202 202 201 200 200 200 198 195 192 188 185 183 181 178 175 172 170 168 166 165 165 164 162 159 164 170 177 184 187 187 187 190 192 193 192 188 184 182 183 187 191 197 203 206 206 206 207 210 214 217 219 220 222 225 228 231 236
195 195 196 197 199 200 202 203 203 202 201 200 199 199 198 198 197 197 196 194 191 187 184 182 179 175 172 169 168 168 166 164 164 164 165 166 170 175 182 188 188 186 186 188 189 188 186 183 182 186 191 196 199 203 206 206 205 207 211 215 218 220 222 223 226 229 233 237 243
191 192 194 196 197 199 201 201 201 200 199 198 197 196 195 194 194 194 193 192 189 185 181 177 174 170 167 166 167 168 168 165 165 168 172 175 178 183 187 190 187 184 183 183 183 183 182 183 187 193 200 203 204 205 206 206 209 215 220 223 225 227 228 231 234 238 243 248 253
189 190 192 193 195 197 198 199 200 199 198 197 196 194 193 191 190 189 188 186 184 180 176 172 169 167 166 165 166 167 167 165 168 173 178 182 185 188 189 187 183 180 178 178 180 182 185 189 194 200 204 205 206 206 208 213 219 225 229 232 234 236 239 242 246 250 256 261 266
188 188 189 191 192 193 195 197 199 199 198 196 195 194 192 190 188 185 182 179 176 174 172 170 167 165 163 162 163 164 164 165 170 175 181 186 188 188 186 182 178 177 177 179 182 187 192 197 200 203 204 205 206 210 215 222 228 233 237 240 243 246 250 253 256 260 266 273 276
188 188 188 189 190 191 193 195 197 197 196 195 193 192 192 190 187 183 178 174 172 170 169 168 166 161 157 156 160 161 162 164 169 175 181 185 186 184 181 178 177 178 182 185 189 193 197 200 202 203 204 206 210 217 223 229 235 239 244 247 250 253 257 259 263 268 271 272 269
189 189 188 189 190 192 193 194 195 194 193 191 189 188 188 188 186 183 179 175 172 171 170 168 163 157 153 155 160 162 161 162 167 173 179 182 182 180 179 179 181 185 189 192 194 196 198 200 201 203 206 212 218 225 232 237 242 246 249 253 256 259 263 265 267 266 264 261 259
192 191 191 191 192 193 194 194 192 190 187 184 182 181 181 184 185 184 181 178 175 174 173 169 162 156 153 156 161 161 161 163 169 175 179 180 179 179 181 184 188 191 194 196 196 197 198 201 204 208 214 221 228 234 239 244 248 251 255 257 260 262 264 262 259 256 254 253 253
195 195 195 195 195 195 195 193 189 185 180 177 175 174 175 178 183 185 184 181 179 176 174 170 162 156 155 158 161 162 163 167 173 178 180 180 181 182 185 189 193 197 199 200 200 201 203 206 211 216 223 229 235 240 244 248 252 255 257 259 259 258 256 253 251 250 250 251 252
199 199 199 198 198 197 196 192 186 179 175 172 170 169 169 172 177 181 182 180 176 172 168 164 159 156 157 161 164 166 169 173 176 179 181 183 184 186 189 193 198 202 204 206 206 208 210 214 219 224 229 233 238 242 246 249 252 253 254 254 253 251 249 249 250 250 251 251 252
200 201 201 200 200 198 195 190 183 176 171 169 166 165 164 165 169 173 174 172 167 162 159 158 158 159 162 166 169 171 174 177 178 180 182 186 189 191 194 198 203 207 210 211 212 214 217 222 226 230 233 237 241 244 247 248 249 249 249 248 247 246 247 248 250 251 252 252 253
200 200 201 200 199 197 194 189 181 175 170 167 165 162 160 160 162 164 165 163 161 159 159 161 163 164 167 170 173 175 177 180 182 185 187 191 194 197 200 204 207 210 213 215 217 219 222 226 229 232 236 240 243 244 245 245 245 245 244 244 244 245 246 248 249 251 252 253 253
198 199 199 198 198 195 192 187 180 174 169 166 164 161 158 157 158 160 162 163 165 167 169 170 170 170 171 174 177 178 180 183 186 190 194 197 200 202 204 206 209 213 216 219 222 224 226 229 232 235 238 241 242 242 242 242 243 244 244 244 244 245 246 248 249 250 251 251 252
198 198 198 198 196 194 191 186 180 174 169 166 163 160 158 157 159 163 167 170 173 175 176 176 175 175 176 178 180 181 182 184 188 193 196 199 201 202 204 209 213 217 220 223 225 228 230 233 235 237 239 239 239 240 241 242 243 243 243 244 245 246 247 248 249 249 249 249 249
197 198 198 198 196 194 191 187 181 175 169 166 163 160 158 158 162 167 171 174 176 176 177 177 179 180 181 182 182 183 183 186 190 195 198 199 201 204 208 212 216 220 223 226 228 230 233 235 236 237 236 236 237 238 239 241 242 243 243 244 246 247 247 248 248 247 247 246 245
197 198 198 198 196 194 192 189 183 176 170 166 162 159 157 159 164 169 171 173 174 177 179 181 183 184 184 184 184 184 184 187 193 197 200 202 204 208 211 215 218 221 225 227 230 232 234 235 235 235 234 234 235 237 238 240 242 243 244 245 246 247 247 247 246 245 244 243 241
198 199 199 198 196 194 192 188 183 177 171 166 162 158 156 159 164 168 170 171 175 181 185 188 189 189 188 187 187 186 186 190 195 199 202 204 207 210 213 216 220 223 225 228 230 232 233 234 234 234 234 234 235 236 238 239 241 242 244 245 245 245 245 244 243 242 240 239 238
196 198 199 197 195 192 189 186 181 177 172 168 162 157 156 158 163 167 171 175 181 186 188 188 188 188 188 188 188 188 188 192 196 200 203 205 208 211 214 217 221 223 226 228 230 231 232 233 234 234 234 235 236 237 238 239 241 242 243 243 243 243 242 240 238 236 235 234 233
190 192 194 193 191 188 184 181 179 177 174 169 162 157 156 160 165 171 176 182 187 189 189 188 188 188 188 189 190 191 192 194 197 200 203 206 208 212 215 219 222 224 227 228 230 231 232 233 234 234 235 236 237 238 239 239 240 241 241 241 241 239 237 235 232 230 229 228 228
183 183 184 184 182 180 177 176 176 176 174 170 163 159 159 164 171 178 183 187 190 192 191 191 190 190 190 192 194 195 197 199 201 203 206 209 212 215 218 220 224 226 228 230 231 232 233 234 235 236 237 238 239 239 239 239 239 239 240 239 237 233 230 228 225 223 222 222 224
179 177 175 174 174 172 171 171 172 173 173 170 165 162 165 172 180 185 188 191 193 195 194 193 193 193 194 196 198 200 202 204 206 208 210 213 216 218 221 223 226 228 230 232 233 234 234 236 237 238 239 240 240 239 239 238 237 237 236 234 231 227 223 219 217 217 218 221 224
179 175 171 170 169 169 168 168 169 171 171 170 167 168 174 183 188 190 192 194 197 199 199 197 197 198 199 201 203 204 206 208 210 212 214 216 218 220 223 225 227 229 231 232 234 235 236 237 239 240 241 242 241 240 238 236 234 232 230 227 223 219 216 214 214 217 221 225 228
179 175 172 169 169 169 168 168 169 170 170 170 171 177 184 190 193 194 196 199 202 203 202 201 201 201 202 204 206 208 209 211 212 214 215 218 220 221 223 224 226 227 229 230 232 234 236 237 239 240 241 241 240 238 235 232 228 225 222 218 216 215 214 215 218 222 225 227 230
179 177 174 171 170 169 170 170 170 170 171 173 179 185 191 194 196 198 199 200 202 203 202 201 200 201 203 206 208 210 212 214 215 216 217 218 220 221 222 221 222 222 223 224 226 228 230 232 233 234 234 234 234 232 230 226 222 219 218 218 218 219 219 221 221 221 220 221 221
179 179 177 174 172 171 170 171 171 173 177 181 186 191 194 197 199 200 201 201 200 200 200 200 200 203 206 208 210 211 213 214 216 217 217 217 218 219 219 217 216 215 214 213 214 216 218 219 220 221 222 223 224 225 224 223 221 223 227 231 230 226 222 220 217 212 207 204 200
179 179 179 177 174 172 173 174 178 181 185 188 191 194 197 199 202 203 203 200 198 198 199 200 202 205 207 209 210 212 213 213 215 216 216 215 215 215 214 212 211 208 205 203 203 204 206 207 208 210 212 214 217 220 223 225 228 233 237 237 233 225 215 207 199 192 185 177 168